Flag for Greece Weather past 2 weeks in Alexandroupoli, Greece

Now
91 °F

Scattered clouds.


Feels Like: 91 °F
Forecast: 71 / 90 °F
Wind: 10 mph from North

Location: Alexandroupoli Airport

Current Time: Jul 26, 2014 at 6:38:40 PM

Latest Report: Jul 26, 2014 at 5:50 PM


Visibility: N/A

Pressure: 29.77 "Hg

Humidity: 34%

Dew point: 59 °F

Location of AlexandroupoliLocation

Historic Weather in Alexandroupoli — Graph

°F

Alexandroupoli temperature yesterday

Maximum temperature yesterday: 90 °F (at 4:20 PM)
Minimum temperature yesterday: 68 °F (at 5:20 AM)
Average temperature yesterday: 79 °F

Past Weeks' High & Low Weather Summary

 TemperatureHumidityPressure
High91 °F (Jul 22, 5:50 PM)94% (Jul 16, 5:50 AM)29.89 "Hg (Jul 16, 5:50 AM)
Low63 °F (Jul 16, 5:20 AM)30% (Jul 22, 5:50 PM)29.59 "Hg (Jul 11, 4:50 PM)
Average77 °F64%29.80 "Hg
* Reported Jul 11 4:50 PM — Jul 26 4:50 PM, Alexandroupoli, Weather by CustomWeather, © 2014

Note: Actual official high and low records may vary slightly from our data, if they occured in-between our weather recording intervals... More about our weather records

Advertising

Alexandroupoli weather history for previous 24 hours

 ConditionsComfort  
Time TempWeatherWind HumidityBarometerVisibility
4:50 PM
Jul 26
91 °FScattered clouds.9 mph34%29.80 "HgN/A
4:20 PM91 °FScattered clouds.12 mph36%29.80 "HgN/A
3:50 PM91 °FScattered clouds.9 mph36%29.80 "HgN/A
3:20 PM91 °FPassing clouds.10 mph36%29.83 "HgN/A
2:50 PM91 °FPassing clouds.12 mph36%29.83 "HgN/A
1:50 PM90 °FPassing clouds.12 mph38%29.83 "HgN/A
1:20 PM88 °FPassing clouds.10 mph38%29.83 "HgN/A
12:50 PM88 °FPassing clouds.10 mph38%29.83 "HgN/A
12:20 PM86 °FPassing clouds.12 mph40%29.86 "HgN/A
11:50 AM86 °FPassing clouds.12 mph40%29.86 "HgN/A
11:20 AM84 °FPassing clouds.12 mph58%29.86 "HgN/A
10:50 AM82 °FPassing clouds.12 mph62%29.86 "HgN/A
10:20 AM82 °FPassing clouds.12 mph66%29.86 "HgN/A
9:50 AM82 °FPassing clouds.12 mph66%29.86 "HgN/A
9:20 AM81 °FPassing clouds.9 mph70%29.83 "HgN/A
8:50 AM81 °FPassing clouds.9 mph70%29.83 "HgN/A
8:20 AM75 °FPassing clouds.5 mph65%29.83 "HgN/A
7:50 AM73 °FPassing clouds.5 mph65%29.83 "HgN/A
7:20 AM72 °FPassing clouds.6 mph73%29.83 "HgN/A
6:50 AM68 °FPassing clouds.6 mph83%29.83 "HgN/A
6:20 AM68 °FPassing clouds.No wind83%29.83 "HgN/A
5:50 AM68 °FPassing clouds.No wind83%29.83 "HgN/A
5:20 AM70 °FClear.No wind78%29.83 "Hg10 mi
4:50 AM70 °FClear.6 mph78%29.83 "Hg10 mi
4:20 AM70 °FClear.No wind78%29.83 "Hg10 mi
3:50 AM70 °FClear.No wind78%29.83 "Hg10 mi
3:20 AM72 °FClear.3 mph73%29.83 "Hg10 mi
2:50 AM72 °FClear.No wind73%29.83 "Hg10 mi
2:20 AM72 °FClear.5 mph73%29.83 "Hg10 mi
1:50 AM72 °FClear.2 mph73%29.83 "Hg10 mi
1:20 AM73 °FClear.3 mph69%29.83 "Hg10 mi
12:50 AM73 °FClear.3 mph69%29.83 "Hg10 mi
12:20 AM75 °FPassing clouds.5 mph61%29.83 "HgN/A
11:50 PM
Jul 25
75 °FPassing clouds.5 mph61%29.83 "HgN/A
11:20 PM77 °FPassing clouds.6 mph61%29.83 "HgN/A
10:50 PM77 °FPassing clouds.6 mph61%29.83 "HgN/A
10:20 PM79 °FPassing clouds.6 mph54%29.83 "HgN/A
9:50 PM81 °FPassing clouds.6 mph54%29.83 "HgN/A
9:20 PM82 °FPassing clouds.6 mph51%29.80 "HgN/A
8:50 PM82 °FPassing clouds.7 mph51%29.80 "HgN/A
8:20 PM86 °FScattered clouds.9 mph43%29.77 "HgN/A
7:50 PM86 °FScattered clouds.12 mph43%29.77 "HgN/A
7:20 PM88 °FPassing clouds.13 mph38%29.77 "HgN/A
6:50 PM88 °FPassing clouds.10 mph38%29.77 "HgN/A
6:20 PM90 °FPassing clouds.9 mph38%29.77 "HgN/A
Weather by CustomWeather, © 2014

See weather overviewHow to use our weather pages